STARLINK-5507 (55638 NORAD) Tracking and Keplerian Element Data

This shows tracking and keplerian element data for the satellite.

Feedback or suggestion? Click here.




ElementValue
Catalog55638
NameSTARLINK-5507
Epoch Orbit130
Epoch Day62.91667824
Epoch Year2023
RAAN110.2036
Inclination69.9994
Eccentricity0.0003528
Argument of Perigee282.6011
Mean Anonmoly309.2774
Mean Motion15.74909008
Decay Rate-0.01038166
L11 55638U 23021L 23062.91667824 -.01038166 00000+0 -77447-2 0 9998
L22 55638 69.9994 110.2036 0003528 282.6011 309.2774 15.74909008 1305



Live tracking and technical data element details for STARLINK-5507 (NORAD 55638). STARLINK-5507 can be tracked NOW for your location showing map with azimuth and elevation plus other details from your city location.







IsCatalogInMostPopularTable: catalog: 55638, numindb: 2
Update: records affected: 1



GetName: 55638 STARLINK-5507

Hit Count: updated at: Wed, 22 Mar 2023 16:32:12 GMT